Time,TemperatureF,DewpointF,PressureIn,WindDirection,WindDirectionDegrees,WindSpeedMPH,WindSpeedGustMPH,Humidity,HourlyPrecipIn,Conditions,Clouds,dailyrainin,SoftwareType,DateUTC
2013-07-11 09:47:00,72.0,65.0,30.01,ENE,59,0.0,-999.0,78,-99.99,,,-99.99,,2013-07-11 13:47:00,
2013-07-11 10:24:00,72.0,65.0,30.01,NNW,344,0.0,-999.0,79,-99.99,,,-99.99,,2013-07-11 14:24:00,
2013-07-11 10:35:00,72.0,65.0,30.01,NNW,344,0.0,-999.0,79,-99.99,,,-99.99,,2013-07-11 14:35:00,
2013-07-11 10:45:00,72.0,64.0,30.02,NNW,329,0.0,-999.0,77,-99.99,,,-99.99,,2013-07-11 14:45:00,
2013-07-11 10:55:00,72.0,65.0,30.02,North,349,0.0,-999.0,78,-99.99,,,-99.99,,2013-07-11 14:55:00,
2013-07-11 11:05:00,72.0,64.0,30.02,NW,325,0.0,-999.0,76,-99.99,,,-99.99,,2013-07-11 15:05:00,
2013-07-11 11:13:00,72.0,64.0,30.02,NW,325,0.0,-999.0,76,-99.99,,,-99.99,,2013-07-11 15:13:00,
2013-07-11 11:24:00,72.0,64.0,30.02,NNE,26,0.0,-999.0,75,-99.99,,,-99.99,,2013-07-11 15:24:00,
2013-07-11 11:46:00,72.0,65.0,30.03,NNE,17,0.0,-999.0,79,-99.99,,,-99.99,,2013-07-11 15:46:00,
2013-07-11 12:15:00,72.0,60.0,30.03,NW,325,0.0,-999.0,67,-99.99,,,-99.99,,2013-07-11 16:15:00,
2013-07-11 12:25:00,72.0,60.0,30.02,NW,325,0.0,-999.0,67,-99.99,,,-99.99,,2013-07-11 16:25:00,
2013-07-11 12:35:00,72.0,60.0,30.02,NW,325,0.0,-999.0,67,-99.99,,,-99.99,,2013-07-11 16:35:00,
2013-07-11 12:47:00,73.0,60.0,30.03,WNW,298,0.0,-999.0,63,-99.99,,,-99.99,,2013-07-11 16:47:00,
2013-07-11 12:56:00,73.0,60.0,30.02,NW,304,0.0,-999.0,64,-99.99,,,-99.99,,2013-07-11 16:56:00,
2013-07-11 13:15:00,74.0,59.0,30.02,WNW,302,0.0,-999.0,59,-99.99,,,-99.99,,2013-07-11 17:15:00,
2013-07-11 13:26:00,74.0,60.0,30.02,NNW,329,0.0,-999.0,62,-99.99,,,-99.99,,2013-07-11 17:26:00,
2013-07-11 13:38:00,74.0,60.0,30.02,NNW,329,0.0,-999.0,62,-99.99,,,-99.99,,2013-07-11 17:38:00,
2013-07-11 13:46:00,74.0,57.0,30.03,NNW,329,0.0,-999.0,56,-99.99,,,-99.99,,2013-07-11 17:46:00,
2013-07-11 13:56:00,74.0,60.0,30.02,North,11,0.0,-999.0,61,-99.99,,,-99.99,,2013-07-11 17:56:00,
2013-07-11 14:05:00,74.0,60.0,30.02,North,11,0.0,-999.0,61,-99.99,,,-99.99,,2013-07-11 18:05:00,
2013-07-11 14:15:00,74.0,59.0,30.02,NW,304,0.0,-999.0,60,-99.99,,,-99.99,,2013-07-11 18:15:00,
2013-07-11 14:35:00,74.0,60.0,30.02,WNW,288,0.0,-999.0,62,-99.99,,,-99.99,,2013-07-11 18:35:00,
2013-07-11 15:13:00,73.0,58.0,30.03,WNW,296,0.0,-999.0,59,-99.99,,,-99.99,,2013-07-11 19:13:00,
2013-07-11 15:38:00,74.0,59.0,30.03,WNW,295,0.0,-999.0,60,-99.99,,,-99.99,,2013-07-11 19:38:00,
2013-07-11 15:57:00,74.0,60.0,30.03,WNW,296,1.0,-999.0,61,-99.99,,,-99.99,,2013-07-11 19:57:00,
2013-07-11 16:13:00,74.0,60.0,30.03,WNW,296,0.0,-999.0,61,-99.99,,,-99.99,,2013-07-11 20:13:00,
2013-07-11 16:26:00,74.0,60.0,30.03,WNW,293,1.0,-999.0,62,-99.99,,,-99.99,,2013-07-11 20:26:00,
2013-07-11 16:37:00,74.0,60.0,30.03,WNW,293,1.0,-999.0,62,-99.99,,,-99.99,,2013-07-11 20:37:00,
2013-07-11 16:47:00,74.0,60.0,30.02,WNW,294,0.0,-999.0,61,-99.99,,,-99.99,,2013-07-11 20:47:00,
2013-07-11 16:56:00,74.0,60.0,30.02,NW,309,0.0,-999.0,62,-99.99,,,-99.99,,2013-07-11 20:56:00,
2013-07-11 17:05:00,74.0,59.0,30.02,West,281,0.0,-999.0,60,-99.99,,,-99.99,,2013-07-11 21:05:00,
2013-07-11 17:15:00,74.0,59.0,30.02,West,281,0.0,-999.0,60,-99.99,,,-99.99,,2013-07-11 21:15:00,
2013-07-11 17:36:00,75.0,61.0,30.02,NNW,330,0.0,-999.0,61,-99.99,,,-99.99,,2013-07-11 21:36:00,
2013-07-11 17:45:00,75.0,61.0,30.02,West,265,1.0,-999.0,61,-99.99,,,-99.99,,2013-07-11 21:45:00,
2013-07-11 18:05:00,74.0,60.0,30.02,East,96,0.0,-999.0,61,-99.99,,,-99.99,,2013-07-11 22:05:00,
2013-07-11 18:16:00,74.0,60.0,30.02,East,96,0.0,-999.0,61,-99.99,,,-99.99,,2013-07-11 22:16:00,
2013-07-11 18:25:00,74.0,60.0,30.02,East,96,0.0,-999.0,61,-99.99,,,-99.99,,2013-07-11 22:25:00,
2013-07-11 18:34:00,74.0,60.0,30.02,East,96,0.0,-999.0,61,-99.99,,,-99.99,,2013-07-11 22:34:00,